Track STARLINK-1569 now! 10-day predictions STARLINK-1569 is classified as:
1 46039U 20055N 21021.44611761 .00000161 00000-0 29730-4 0 9993 2 46039 53.0556 255.9186 0002438 80.1304 279.9960 15.06383427 26545